Regional Weather Roundup
Issued by NWS

Home | Current Version | Previous Version | Graphics & Text | Print | Product List | Glossary On
Versions: 1 2 3 4 5 6 7 8 9 10 11 12 13 14 15 16 17 18 19 20 21 22 23 24 25 26 27 28 29 30 31 32 33 34 35 36 37 38 39 40 41 42 43 44 45 46 47 48 49 50
000
ASUS43 KOAX 270402
RWRNE

WEATHER ROUNDUP FOR NEBRASKA
NATIONAL WEATHER SERVICE OMAHA NE
1100 PM CDT TUE AUG 26 2014

NOTES: SATELLITE DATA IS BEING USED TO AUGMENT CLOUD COVER ABOVE
       12000 FEET.
       "FAIR" INDICATES FEW OR NO CLOUDS BELOW 12,000 FEET WITH NO
       SIGNIFICANT WEATHER AND/OR OBSTRUCTIONS TO VISIBILITY.

  * THESE STATIONS DO NOT REPORT WEATHER SUCH AS RAIN...SNOW OR FOG.

NEZ001>004-019>022-054>056-270500-
NEBRASKA PANHANDLE

CITY           SKY/WX    TMP DP  RH WIND       PRES   REMARKS
SCOTTSBLUFF    MOCLDY    66  61  84 NE7       30.12F
ALLIANCE       CLOUDY    70  62  76 SE8       30.15F
CHADRON        CLOUDY    68  63  84 E5        30.13R
KIMBALL        MOCLDY    62  53  71 SE7       30.19S
SIDNEY         MOCLDY    69  62  78 SE13      30.18S
$$

NEZ057>060-069>072-079>082-270500-
SOUTHWEST NEBRASKA

CITY           SKY/WX    TMP DP  RH WIND       PRES   REMARKS
NORTH PLATTE   MOCLDY    67  65  93 E6        30.15R
IMPERIAL       CLOUDY    70  65  84 E6        30.14R
LEXINGTON      MOCLDY    72  69  90 E9        30.13R
MCCOOK         CLOUDY    72  68  87 E8        30.11R
OGALLALA       MOCLDY    66  62  86 E5        30.16R
$$

NEZ005>010-023>029-035>040-094-270500-
NORTH CENTRAL NEBRASKA

CITY           SKY/WX    TMP DP  RH WIND       PRES   REMARKS
VALENTINE      MOCLDY    71  63  75 S12       30.12R
AINSWORTH      MOCLDY    66  64  91 SE9       30.13F
BROKEN BOW     PTCLDY    69  67  93 E7        30.15R
O`NEILL        PTCLDY    67  65  93 SE8       30.16S
ORD            CLOUDY    67  65  93 E3        30.15R
THEDFORD       MOCLDY    70  63  79 SE8       30.16S
$$

NEZ041-046>049-061>064-073>077-083>087-270500-
SOUTH CENTRAL NEBRASKA

CITY           SKY/WX    TMP DP  RH WIND       PRES   REMARKS
GRAND ISLAND   PTCLDY    69  67  93 E7        30.14R
AURORA         CLEAR     68  68 100 E6        30.13R
HASTINGS       PTCLDY    71  66  84 E9        30.13R
HEBRON         MOCLDY    74  67  77 E8        30.09S
HOLDREGE       PTCLDY    70  68  93 CALM      30.13R
KEARNEY *      MOCLDY    70  66  88 NE8       30.14R
YORK           PTCLDY    68 N/A N/A E6        30.14R
$$

NEZ011>018-030>034-042>045-270500-
NORTHEAST NEBRASKA

CITY           SKY/WX    TMP DP  RH WIND       PRES   REMARKS
NORFOLK        CLOUDY    66  62  87 E5        30.16R
ALBION         MOCLDY    68  64  84 E6        30.16S
BLAIR          MOCLDY    70  66  86 NE6       30.13S
FREMONT        MOCLDY    71  65  81 E5        30.14R
TEKAMAH        MOCLDY    68  65  90 NE6       30.13S
WAYNE          PTCLDY    63  61  95 CALM      30.16R
$$

NEZ050>053-065>068-078-088>093-270500-
SOUTHEAST NEBRASKA

CITY           SKY/WX    TMP DP  RH WIND       PRES   REMARKS
LINCOLN        CLEAR     72  67  84 E5        30.12S
OMAHA EPPLEY   MOCLDY    72  65  78 E6        30.12S
BEATRICE       PTCLDY    73  68  84 E7        30.10S
FALLS CITY     CLEAR     73  70  90 E5        30.09S
NEBRASKA CITY  PTCLDY    69  69 100 NE3       30.12S
PLATTSMOUTH    PTCLDY    71  67  85 E6        30.12S
$$

NEZ044-045-051>053-067-270500-
OMAHA AREA

CITY           SKY/WX    TMP DP  RH WIND       PRES   REMARKS
OMAHA EPPLEY   MOCLDY    72  65  78 E6        30.12S
BLAIR          MOCLDY    70  66  86 NE6       30.13S
FREMONT        MOCLDY    71  65  81 E5        30.14R
MILLARD        MOCLDY    73  67  80 CALM      30.11S
OFFUTT AFB     MOCLDY    71  70  99 E6        30.11S
PLATTSMOUTH    PTCLDY    71  67  85 E6        30.12S
WAHOO          FAIR      69  65  88 CALM      30.12S
$$


USA.gov is the U.S. government's official web portal to all federal, state and local government web resources and services.